Regional Weather Roundup
Issued by NWS Green Bay, WI

Home | Current Version | Previous Version | Graphics & Text | Print | Product List | Glossary Off
Versions: 1 2 3 4 5 6 7 8 9 10 11 12 13 14 15 16 17 18 19 20 21 22 23 24 25 26 27 28 29 30 31 32 33 34 35 36 37 38 39 40 41 42 43 44 45 46 47 48 49 50

000
ASUS43 KGRB 300810
RWRGRB

NORTH-CENTRAL AND NORTHEAST WISCONSIN REGIONAL WEATHER ROUNDUP
NATIONAL WEATHER SERVICE GREEN BAY WI
300 AM CDT THU OCT 30 2014

WIZ005-009-010>012-018-019-300900-
NORTH CENTRAL WISCONSIN

CITY           SKY/WX    TMP DP  RH WIND       PRES   REMARKS
IRONWOOD       CLOUDY    37  34  87 CALM      30.03S
MANITOWISH WTR CLOUDY    35  32  88 CALM      30.04F
ARBOR VITAE    CLOUDY    37  32  84 W3        30.05S
EAGLE RIVER    CLOUDY    37  30  78 W3        30.04S
LAND O LAKES   CLOUDY    36  32  85 W5        30.05S
RHINELANDER    CLOUDY    36  31  82 W7        30.05F
PHILLIPS       CLOUDY    37  32  84 SW3       30.04S
ANTIGO         CLOUDY    31  31  99 W5        30.06F
TOMAHAWK       CLOUDY    36  32  86 CALM      30.06F
MERRILL        CLOUDY    32  31  98 CALM      30.07S
$$

WIZ013-073-300900-
NORTHEAST WISCONSIN

CITY           SKY/WX    TMP DP  RH WIND       PRES   REMARKS
IRON MOUNTAIN  CLOUDY    38  33  82 CALM      30.05S
MARINETTE      CLOUDY    39  34  81 CALM      30.08S
OCONTO         MOCLDY    34  33  97 CALM      30.08F
$$

WIZ017-030-035>037-045-300900-
CENTRAL WISCONSIN

CITY           SKY/WX    TMP DP  RH WIND       PRES   REMARKS
MEDFORD        MOCLDY    31  30  96 S3        30.06F
WAUSAU         MOCLDY    34  31  88 CALM      30.07S
MOSINEE        PTCLDY    32  32 100 CALM      30.09S
MARSHFIELD     MOCLDY    33  31  92 CALM      30.08S
WISC RAPIDS    MOCLDY    31  29  92 CALM      30.10S
STEVENS POINT  PTCLDY    28  27  95 CALM      30.09F
WAUPACA        PTCLDY    33  32  97 CALM      30.09F
SHAWANO        PTCLDY    36  32  87 CALM      30.09S
CLINTONVILLE   PTCLDY    32  32 100 CALM      30.09S
$$

WIZ038-039-048-051-300900-
FOX VALLEY

CITY           SKY/WX    TMP DP  RH WIND       PRES   REMARKS
NWS GREEN BAY  MOCLDY    38  34  85 CALM      30.09F
APPLETON         N/A     36  32  87 W5        30.09F
OSHKOSH        PTCLDY    36  32  85 SW6       30.09S
FOND DU LAC    PTCLDY    31  28  89 SW5       30.10S
$$

WIZ022-050-052-300900-
EAST CENTRAL WISCONSIN

CITY           SKY/WX    TMP DP  RH WIND       PRES   REMARKS
STURGEON BAY   CLOUDY    41  34  75 W5        30.09S
MANITOWOC      PTCLDY    39  35  86 W6        30.10S
SHEBOYGAN      PTCLDY    33  30  88 CALM      30.10F
$$

LMZ563-521-522-541>543-300900-
LAKESHORE

STATION/POSITION TIME  TEMP    WIND        PRES    VSBY  WAVE
                       AIR SEA DIR/SP/G                  HT/PER
                 (UTC) (F)     (DEG/KT/KT) (MB)    (MI)  (FT/S)
SHEBOYGAN LKSHOR 0800   40 50  260/  6/  7 1020.0F
KEWAUNEE LKSHORE 0800   42     300/  3/  3 1018.1S
NORTHPORT PIER   0800   42     170/  2/  2 1018.6S
N MID LAKE BUOY  0800   43 51   10/  4/  6 1019.0F         1
CHAMBERS ISLAND  0800   41     280/  1/  2 1019.0S
MENOMINEE LKSHOR 0800   42     280/  3/  4 1019.3F
$$



USA.gov is the U.S. government's official web portal to all federal, state and local government web resources and services.